DW6885 Weather Reports


Display with metric or nautical units.
time (UTC)temp
F
wind
direction
speed
MPH
gust
MPH
rain 1hr
in
rain 24hr
in
rain mn
in
humidity
%
barometer
mb
20160524153704 57 9 1.0 4.0 0.00 0.39 0.39 96 1011.9
20160524153511 57 288 0.0 6.0 0.00 0.39 0.39 96 1011.9
20160524152204 57 280 2.0 7.0 0.00 0.39 0.39 95 1012.0
20160524151508 58 95 0.0 3.0 0.00 0.39 0.39 95 1011.9
20160524150513 58 144 0.0 6.0 0.00 0.39 0.39 96 1011.8
20160524145010 57 55 0.0 8.0 0.00 0.39 0.39 97 1011.7
20160524144510 58 322 0.0 8.0 0.00 0.39 0.39 97 1011.7
20160524143507 58 280 1.0 3.0 0.00 0.39 0.39 98 1011.7
20160524143405 57 280 0.0 3.0 0.00 0.39 0.39 98 1011.7
20160524142510 57 169 0.0 5.0 0.00 0.39 0.39 98 1011.4
20160524141905 57 207 0.0 5.0 0.00 0.39 0.39 98 1011.4
20160524141509 57 278 1.0 5.0 0.00 0.39 0.39 98 1011.4
20160524140510 57 217 1.0 3.0 0.01 0.39 0.39 99 1011.5
20160524140404 56 217 1.0 3.0 0.00 0.39 0.39 99 1011.5
20160524134806 55 290 1.0 3.0 0.01 0.39 0.39 98 1011.8
20160524133510 55 287 0.0 3.0 0.02 0.39 0.39 98 1011.8
20160524133304 54 287 0.0 3.0 0.01 0.39 0.39 98 1011.8
20160524132512 54 276 1.0 3.0 0.02 0.39 0.39 98 1011.8
20160524131806 54 69 0.0 2.0 0.02 0.39 0.39 98 1011.7
20160524130204 54 69 0.0 2.0 0.04 0.39 0.39 98 1012.0
20160524125513 54 69 0.0 2.0 0.04 0.39 0.39 98 1012.0
20160524124705 54 69 0.0 2.0 0.03 0.38 0.38 98 1012.0
20160524124511 54 63 0.0 3.0 0.03 0.38 0.38 97 1012.0
20160524123204 54 158 0.0 1.0 0.03 0.38 0.38 98 1012.0
20160524122513 54 158 0.0 1.0 0.02 0.37 0.37 97 1012.0
20160524121704 54 158 0.0 2.0 0.02 0.37 0.37 97 1012.0
20160524120510 55 158 0.0 2.0 0.02 0.35 0.35 97 1011.9
20160524120204 54 215 0.0 2.0 0.00 0.35 0.35 97 1011.9
20160524115510 55 122 0.0 3.0 0.06 0.35 0.35 97 1011.7
20160524114510 55 150 0.0 1.0 0.03 0.35 0.35 97 1011.5
20160524113012 54 150 0.0 2.0 0.16 0.35 0.35 98 1011.6
20160524112510 55 150 1.0 2.0 0.34 0.35 0.35 98 1011.5
20160524111738 54 155 0.0 2.0 0.31 0.35 0.35 97 1011.6
20160524111510 54 155 0.0 1.0 0.35 0.35 0.35 97 1011.6
20160524105906 53 294 0.0 1.0 0.35 0.35 0.35 97 1011.8
20160524105510 54 294 0.0 1.0 0.34 0.34 0.34 97 1011.7
20160524104511 53 311 0.0 3.0 0.31 0.31 0.31 96 1011.5
20160524102805 53 331 0.0 2.0 0.17 0.17 0.17 96 1011.8
20160524101510 54 261 0.0 1.0 0.03 0.03 0.03 94 1011.9
20160524101305 54 261 0.0 1.0 0.02 0.02 0.02 94 1011.9
20160524095804 53 259 0.0 0.0 0.00 0.00 0.00 93 1011.4
20160524094307 53 259 0.0 2.0 0.00 0.00 0.00 93 1011.0
20160524092703 53 219 0.0 1.0 0.00 0.00 0.00 92 1010.9
20160524091204 53 219 0.0 2.0 0.00 0.00 0.00 92 1010.7
20160524085704 53 219 0.0 0.0 0.00 0.00 0.00 90 1010.6
20160524084204 53 28 0.0 1.0 0.00 0.00 0.00 90 1010.6
20160524082513 54 28 0.0 1.0 0.00 0.00 0.00 89 1010.5
20160524081510 55 28 0.0 1.0 0.00 0.00 0.00 89 1010.8
20160524081011 55 27 0.0 1.0 0.00 0.00 0.00 89 1010.8
20160524075513 55 20 0.0 0.0 0.00 0.00 0.00 89 1010.9
20160524073905 55 20 0.0 1.0 0.00 0.00 0.00 89 1011.0
20160524073511 55 20 0.0 1.0 0.00 0.00 0.00 89 1011.1
20160524072512 55 20 0.0 1.0 0.00 0.00 0.00 89 1011.3
20160524072405 55 20 0.0 1.0 0.00 0.00 0.00 89 1011.2
20160524070803 55 20 0.0 0.0 0.00 0.00 0.00 88 1011.7
20160524065512 56 20 0.0 0.0 0.00 0.00 0.00 88 1011.7
20160524065304 55 20 0.0 0.0 0.00 0.00 0.00 88 1011.6
20160524063804 56 20 0.0 1.0 0.00 0.00 0.00 87 1011.7
20160524062510 56 20 0.0 1.0 0.00 0.00 0.00 85 1011.4
20160524062204 56 20 0.0 1.0 0.00 0.00 0.00 85 1011.4
20160524061512 56 20 0.0 2.0 0.00 0.00 0.00 85 1011.5
20160524060804 56 20 0.0 2.0 0.00 0.00 0.00 85 1011.5
20160524060511 56 20 1.0 2.0 0.00 0.00 0.00 85 1011.5
20160524055513 57 313 0.0 0.0 0.00 0.00 0.00 84 1011.5
20160524055205 0 0.0 0.0 0.00 0.00 0.00 1011.5
20160524053709 0 0.0 0.0 0.00 0.00 0.00 1011.9
20160524052204 0 0.0 0.0 0.00 0.00 0.00 1011.7
20160524050810 57 313 0.0 1.0 0.00 0.00 0.00 82 1011.9
20160524045512 57 313 1.0 2.0 0.00 0.00 0.00 82 1012.1
20160524045211 57 313 0.0 3.0 0.00 0.00 0.00 82 1012.1
20160524044513 57 49 0.0 2.0 0.00 0.00 0.00 83 1012.1
20160524043513 57 37 1.0 2.0 0.00 0.00 0.00 84 1012.1
20160524042514 57 37 1.0 2.0 0.00 0.00 0.00 85 1012.2
20160524041904 56 37 0.0 0.0 0.00 0.00 0.00 85 1012.3
20160524040404 57 37 0.0 0.0 0.00 0.00 0.00 83 1012.2
20160524034905 57 37 0.0 0.0 0.00 0.00 0.00 81 1012.1
20160524034510 57 37 0.0 0.0 0.00 0.00 0.00 81 1012.2
20160524033304 57 37 0.0 0.0 0.00 0.00 0.00 80 1012.2
20160524032510 58 37 0.0 0.0 0.00 0.00 0.00 80 1012.1
20160524031805 57 37 0.0 0.0 0.00 0.00 0.00 79 1012.2
20160524030507 58 37 0.0 0.0 0.00 0.00 0.00 78 1012.0
20160524030304 58 37 0.0 0.0 0.00 0.00 0.00 78 1012.0
20160524025509 58 37 0.0 0.0 0.00 0.00 0.00 78 1012.1
20160524024704 58 37 0.0 0.0 0.00 0.00 0.00 77 1012.0
20160524023509 59 37 0.0 0.0 0.00 0.00 0.00 76 1011.9
20160524023203 58 37 0.0 0.0 0.00 0.00 0.00 76 1011.8
20160524022512 59 37 0.0 0.0 0.00 0.00 0.00 75 1011.7
20160524021703 59 37 0.0 0.0 0.00 0.00 0.00 73 1011.6
20160524021512 60 37 0.0 0.0 0.00 0.00 0.00 73 1011.6
20160524020509 60 37 0.0 0.0 0.00 0.00 0.00 73 1011.5
20160524020203 59 37 0.0 0.0 0.00 0.00 0.00 73 1011.5
20160524014704 60 37 0.0 0.0 0.00 0.00 0.00 71 1011.5
20160524014512 61 37 0.0 0.0 0.00 0.00 0.00 72 1011.4
20160524013509 61 37 0.0 0.0 0.00 0.00 0.00 72 1011.2
20160524013204 61 37 0.0 0.0 0.00 0.00 0.00 71 1011.2
20160524011513 62 37 0.0 0.0 0.00 0.00 0.00 70 1011.2
20160524010510 62 37 0.0 0.0 0.00 0.00 0.00 67 1011.0
20160524005904 62 37 0.0 0.0 0.00 0.00 0.00 67 1010.9
20160524004510 63 37 0.0 2.0 0.00 0.00 0.00 65 1010.8
20160524004410 62 37 0.0 2.0 0.00 0.00 0.00 65 1010.8
20160524003506 66 0 0.0 0.0 0.00 0.00 0.00 56 1010.7
20160524002907 0 0.0 0.0 0.00 0.00 0.00 1010.6
20160524001509 66 0 0.0 0.0 0.00 0.00 0.00 56 1010.6
20160524001304 0 0.0 0.0 0.00 0.00 0.00 1010.6
20160523235907 66 37 0.0 1.0 0.00 0.00 0.00 56 1010.4
20160523234509 67 42 0.0 1.0 0.00 0.00 0.00 54 1010.3
20160523234304 67 42 0.0 2.0 0.00 0.00 0.00 54 1010.3
20160523232704 0 0.0 0.0 0.00 0.00 0.00 1010.2
20160523231203 0 0.0 0.0 0.00 0.00 0.00 1010.4
20160523230509 71 0 0.0 0.0 0.00 0.00 0.00 52 1010.4
20160523225704 0 0.0 0.0 0.00 0.00 0.00 1010.3
20160523224305 71 279 0.0 2.0 0.00 0.00 0.00 52 1010.3
20160523222511 72 355 0.0 2.0 0.00 0.00 0.00 49 1010.1
20160523221509 73 355 0.0 1.0 0.00 0.00 0.00 48 1010.1
20160523221216 72 87 0.0 2.0 0.00 0.00 0.00 49 1010.0
20160523220510 73 87 0.0 3.0 0.00 0.00 0.00 47 1010.0
20160523215511 73 150 1.0 4.0 0.00 0.00 0.00 43 1010.0
20160523214509 74 169 1.0 5.0 0.00 0.00 0.00 43 1009.9
20160523213905 74 169 0.0 5.0 0.00 0.00 0.00 38 1009.9
20160523213510 74 302 1.0 5.0 0.00 0.00 0.00 39 1009.9
20160523212710 74 360 0.0 4.0 0.00 0.00 0.00 38 1010.0
20160523210905 75 17 0.0 2.0 0.00 0.00 0.00 36 1010.0
20160523210509 76 17 0.0 2.0 0.00 0.00 0.00 36 1010.0
20160523205305 75 17 0.0 3.0 0.00 0.00 0.00 35 1010.1
20160523203805 76 355 0.0 4.0 0.00 0.00 0.00 38 1010.2
20160523203509 76 339 1.0 3.0 0.00 0.00 0.00 34 1010.2
20160523202203 76 13 1.0 5.0 0.00 0.00 0.00 31 1010.3
20160523200703 77 63 0.0 5.0 0.00 0.00 0.00 32 1010.3
20160523200509 78 340 1.0 5.0 0.00 0.00 0.00 32 1010.3
20160523195509 77 114 1.0 3.0 0.00 0.00 0.00 36 1010.3
20160523195203 76 100 1.0 7.0 0.00 0.00 0.00 32 1010.3
20160523194510 75 211 1.0 3.0 0.00 0.00 0.00 35 1010.3
20160523193703 75 275 0.0 4.0 0.00 0.00 0.00 35 1010.4
20160523192203 77 323 1.0 5.0 0.00 0.00 0.00 35 1010.5
20160523190703 77 158 1.0 4.0 0.00 0.00 0.00 39 1010.7
20160523185509 77 154 3.0 7.0 0.00 0.00 0.00 37 1010.8
20160523185010 76 355 0.0 4.0 0.00 0.00 0.00 39 1010.8
20160523183512 76 0 0.0 2.0 0.00 0.00 0.00 36 1011.0
20160523181905 76 17 0.0 5.0 0.00 0.00 0.00 36 1011.0
20160523181510 76 331 0.0 1.0 0.00 0.00 0.00 36 1011.1
20160523180705 76 173 0.0 5.0 0.00 0.00 0.00 36 1011.2
20160523180511 76 173 0.0 5.0 0.00 0.00 0.00 36 1011.3
20160523174905 74 179 1.0 7.0 0.00 0.00 0.00 40 1011.4
20160523173509 75 288 0.0 7.0 0.00 0.00 0.00 40 1011.4
20160523173303 74 288 1.0 7.0 0.00 0.00 0.00 41 1011.3
20160523171803 74 208 0.0 4.0 0.00 0.00 0.00 37 1011.5
20160523171509 75 90 0.0 3.0 0.00 0.00 0.00 40 1011.6
20160523170304 75 355 2.0 7.0 0.00 0.00 0.00 38 1011.6
20160523164703 76 159 1.0 7.0 0.00 0.00 0.00 41 1011.6
20160523164508 76 142 2.0 7.0 0.00 0.00 0.00 42 1011.7
20160523163212 74 125 1.0 8.0 0.00 0.00 0.00 44 1011.6
20160523161703 73 112 1.0 5.0 0.00 0.00 0.00 42 1011.9
20160523161508 73 214 1.0 12.0 0.00 0.00 0.00 43 1011.9
20160523160507 73 72 2.0 12.0 0.00 0.00 0.00 44 1012.0
20160523160203 73 242 2.0 9.0 0.00 0.00 0.00 44 1012.0
20160523155509 74 267 1.0 6.0 0.00 0.00 0.00 44 1012.2
20160523154702 73 333 2.0 10.0 0.00 0.00 0.00 47 1012.2
20160523154509 74 243 2.0 7.0 0.00 0.00 0.00 43 1012.3